Lapse_Rate
6.7 6.8 7.0 7.0 6.9 6.8 6.8 6.8 6.9 6.8 6.7 6.7 6.8 6.8 7.1 7.2 7.0 6.8 6.7 6.7 6.7 6.8 6.6 6.5 6.4 6.4 6.3 6.2 6.2 6.1 6.1 6.0 5.9 5.9 5.9 5.8 5.6 5.6 5.5 5.5 5.6 5.6 5.5 5.5 5.5 5.5 5.6 5.6 5.6
6.8 6.7 6.7 6.6 6.6 6.8 6.6 6.6 6.6 6.6 6.5 6.4 6.5 6.6 6.7 6.8 6.8 6.8 6.8 6.9 7.0 7.0 6.9 6.7 6.7 6.6 6.5 6.4 6.4 6.2 6.2 6.2 6.1 5.8 5.6 5.6 5.6 5.4 5.3 5.3 5.4 5.3 5.4 5.3 5.3 5.4 5.6 5.7 5.6
6.8 6.7 6.5 6.5 6.6 6.5 6.6 6.7 6.5 6.3 6.4 6.3 6.1 6.2 6.3 6.4 6.4 6.3 6.4 6.4 6.6 6.6 6.6 6.4 6.4 6.4 6.4 6.4 6.4 6.4 6.2 6.1 6.0 5.8 5.7 5.6 5.6 5.7 5.7 5.5 5.3 5.2 5.2 5.1 5.1 5.2 5.5 5.7 5.7
6.6 6.4 6.3 6.4 6.3 6.4 6.4 6.4 6.3 6.3 6.4 6.5 6.2 6.0 6.2 6.1 6.2 6.2 6.1 6.1 6.1 6.0 6.0 6.0 6.0 6.0 6.0 6.1 6.1 6.1 6.1 6.0 6.0 5.9 5.9 5.8 5.7 5.7 5.6 5.6 5.5 5.4 5.3 5.1 5.0 4.9 5.1 5.6 5.7
6.4 6.3 6.4 6.3 6.2 6.3 6.3 6.3 6.1 6.1 6.3 6.4 6.2 6.2 6.0 6.2 6.4 6.3 6.1 6.2 6.2 6.3 6.3 6.3 6.1 6.0 5.8 5.8 5.9 5.9 6.0 6.0 6.0 5.9 5.8 5.7 5.7 5.6 5.5 5.5 5.5 5.5 5.3 5.4 5.3 5.0 5.0 5.3 5.6
6.2 6.2 6.2 6.1 6.1 6.4 6.6 6.5 6.3 6.2 5.9 5.8 6.0 6.1 6.1 6.1 6.2 6.4 6.6 6.5 6.3 6.1 6.0 6.2 6.3 6.2 6.0 5.9 5.9 5.9 5.9 6.0 5.9 5.9 5.9 5.8 5.7 5.6 5.6 5.5 5.4 5.4 5.4 5.3 5.3 5.4 5.5 5.6 5.6
6.1 6.1 6.1 6.1 6.0 6.1 6.3 6.2 6.0 6.0 6.1 5.9 5.7 5.9 6.2 6.2 6.0 6.1 6.2 6.3 5.9 6.0 6.1 6.3 6.2 6.1 5.9 5.8 5.8 5.9 5.9 5.8 5.8 5.8 5.8 5.7 5.7 5.7 5.6 5.5 5.5 5.5 5.4 5.4 5.3 5.2 5.2 5.6 5.8
6.2 6.1 6.2 6.1 5.9 5.8 5.8 6.0 6.2 6.2 6.1 5.9 5.8 5.8 6.2 6.2 6.4 6.5 6.5 6.5 6.6 6.8 6.7 6.4 6.0 6.0 6.1 6.0 5.9 5.9 5.8 5.8 5.9 6.0 5.9 5.8 5.7 5.7 5.6 5.7 5.6 5.5 5.5 5.5 5.4 5.2 5.2 5.3 5.4
6.3 6.2 6.3 6.1 6.0 6.1 6.0 6.0 6.2 6.2 6.2 5.9 5.8 5.8 5.9 5.9 6.0 5.9 6.2 6.6 6.6 6.6 6.6 6.5 6.4 6.4 6.2 6.2 6.0 5.9 5.8 5.8 5.9 6.0 6.0 6.1 6.1 5.9 5.8 5.8 5.7 5.7 5.5 5.5 5.5 5.4 5.3 5.3 5.3
6.3 6.4 6.3 6.4 6.2 6.2 6.2 6.1 6.3 6.5 6.4 6.4 5.9 5.9 5.8 5.7 5.4 5.4 5.6 6.1 6.6 6.7 6.6 6.5 6.4 6.4 6.5 6.3 6.2 6.1 6.2 6.0 6.0 6.1 6.0 6.1 6.1 6.0 6.1 6.0 5.8 5.7 5.6 5.6 5.5 5.5 5.5 5.3 5.0
6.2 6.2 6.2 6.1 6.2 6.2 6.2 6.2 6.0 6.2 6.9 6.5 6.2 5.9 5.9 6.0 5.9 5.8 5.5 5.3 5.6 6.1 6.3 6.5 6.5 6.5 6.6 6.6 6.5 6.1 6.1 6.2 6.2 6.1 6.2 6.2 6.2 6.2 6.3 6.2 6.0 5.8 5.8 5.9 5.7 5.6 5.5 5.4 5.0
6.3 6.1 6.1 6.1 6.1 6.3 6.4 6.5 6.3 6.3 6.4 6.6 6.8 6.6 6.3 6.0 5.9 6.0 6.0 5.9 5.7 5.7 5.8 6.1 6.4 6.5 6.4 6.3 6.5 6.4 6.2 6.0 6.3 6.2 6.2 6.3 6.4 6.4 6.4 6.4 6.3 6.1 5.9 5.9 5.9 5.8 5.7 5.6 5.3
6.4 6.3 6.2 6.2 6.3 6.4 6.4 6.5 6.3 6.6 6.2 6.4 6.6 6.7 6.6 6.4 6.1 6.0 6.1 6.1 6.1 5.9 5.9 6.1 6.2 6.3 6.3 6.3 6.2 6.2 6.2 6.2 6.2 6.3 6.3 6.3 6.3 6.5 6.4 6.4 6.6 6.3 6.0 6.2 5.9 5.8 6.0 5.8 5.6
6.4 6.4 6.4 6.4 6.3 6.4 6.4 6.5 6.5 6.4 6.2 6.3 6.2 6.3 6.2 6.3 6.5 6.6 6.6 6.5 6.4 6.4 6.3 6.0 6.2 6.2 6.1 6.5 6.5 6.5 6.2 6.2 6.1 6.2 6.4 6.4 6.4 6.5 6.3 6.6 6.3 6.3 6.3 6.3 6.2 6.2 6.2 6.0 6.0
6.5 6.7 6.5 6.2 6.2 6.1 6.0 6.4 6.3 6.1 6.1 5.9 5.8 5.8 5.9 6.1 6.2 6.2 6.0 6.0 6.2 6.3 6.3 5.9 5.7 5.6 5.5 5.7 5.9 6.1 6.4 6.3 6.5 6.6 6.2 6.4 6.6 6.3 6.7 6.5 6.5 6.5 6.4 6.3 6.2 6.0 6.0 6.3 6.0
6.3 6.4 6.6 6.4 6.5 6.1 5.8 6.3 5.9 5.9 5.9 5.8 5.8 5.7 5.7 5.7 5.7 5.7 5.8 5.8 5.7 5.7 5.9 6.2 6.0 5.9 5.6 5.6 5.7 5.8 6.2 6.3 6.5 6.7 6.8 6.8 6.5 6.4 6.7 6.2 6.2 5.9 6.1 6.2 6.2 6.0 6.6 6.1 6.2
6.2 6.2 6.2 6.3 6.2 6.0 5.5 5.3 5.8 5.8 5.9 6.0 6.0 5.8 5.7 5.6 5.7 5.7 5.8 5.8 5.8 5.7 5.7 5.7 5.8 5.8 5.9 5.8 5.7 5.8 5.8 6.1 6.4 6.6 6.7 6.6 6.5 6.5 6.5 6.3 6.3 6.1 5.8 6.0 6.3 6.4 6.3 6.2 6.0
5.6 5.6 5.6 5.4 5.5 5.4 5.5 5.7 5.7 5.5 5.5 5.7 5.6 5.7 5.6 5.5 5.5 5.5 5.6 5.8 5.9 6.0 6.0 5.9 5.9 5.8 5.9 6.2 6.2 6.2 6.2 6.2 6.4 6.6 6.7 6.6 6.6 6.5 6.4 6.5 6.2 6.3 6.3 6.1 5.9 6.1 6.3 6.4 6.2
5.2 5.1 5.0 5.2 5.3 5.1 5.3 5.3 5.4 5.2 5.4 5.5 5.3 5.4 5.5 5.8 5.7 5.7 5.9 6.0 6.1 6.3 6.4 6.4 6.3 6.3 6.2 6.0 6.4 6.6 6.5 6.5 6.5 6.7 6.7 6.8 6.8 6.7 6.4 6.4 6.2 5.7 6.2 6.5 6.0 5.7 6.5 6.3 6.2
5.3 5.0 4.9 5.2 5.1 5.0 5.1 5.0 4.9 4.7 4.9 4.9 5.0 5.2 5.4 5.6 5.8 5.9 5.9 5.8 5.8 6.1 6.5 6.8 7.1 6.9 6.8 6.6 6.4 6.8 7.4 7.6 7.3 7.0 6.9 6.8 6.9 6.8 6.7 6.4 6.3 6.2 6.2 6.0 5.7 5.8 5.9 6.4 6.2
5.4 5.1 5.1 4.8 4.8 4.8 4.7 4.5 4.5 4.4 4.2 4.3 4.6 4.8 5.1 5.3 5.6 5.7 5.8 6.0 6.1 6.2 6.2 6.6 7.0 7.4 7.6 7.4 7.3 7.1 7.1 7.7 7.6 7.2 7.0 6.8 6.9 7.0 6.8 6.5 6.5 6.6 6.4 6.3 5.9 5.9 5.9 5.8 5.8
4.8 4.8 4.7 4.6 4.4 4.1 4.2 3.8 4.1 4.2 4.3 4.5 4.6 4.6 4.8 5.2 5.8 6.1 6.4 6.3 6.1 6.2 6.3 6.6 6.8 6.9 7.4 7.7 7.6 7.6 7.6 7.4 7.4 7.3 7.0 7.1 7.1 7.4 7.2 6.8 6.8 6.8 6.2 6.1 6.0 5.9 6.2 5.9 5.3
4.4 4.2 4.3 4.3 4.3 4.3 4.2 4.2 4.5 4.2 4.5 4.9 4.9 5.0 5.1 5.2 5.7 6.2 6.3 6.2 6.3 6.3 6.2 6.6 6.7 6.9 7.0 7.3 7.0 7.6 7.7 7.5 7.8 7.8 7.3 7.3 7.4 7.6 7.5 7.2 7.0 7.0 6.6 6.4 6.0 6.4 6.3 5.4 5.3
4.0 3.9 4.3 4.5 4.5 3.5 3.9 3.8 4.0 4.7 5.1 5.1 5.4 5.7 5.8 5.9 6.0 6.1 6.6 6.7 6.8 6.7 7.0 7.0 6.8 6.8 6.4 7.2 7.1 7.6 7.7 7.6 7.7 8.1 7.7 7.5 7.7 7.6 7.5 7.4 7.3 6.9 6.7 6.6 6.0 6.1 5.6 4.9 5.3
4.4 4.3 3.7 3.3 4.1 4.3 4.4 4.6 5.0 5.8 5.9 6.2 6.4 6.3 6.4 6.5 6.4 6.6 6.7 6.7 6.7 6.8 7.1 7.1 7.1 6.7 6.5 6.9 7.3 7.2 7.4 7.5 7.6 7.9 7.9 7.5 7.7 7.7 7.7 7.5 7.0 6.8 6.8 6.4 6.1 6.2 5.6 5.2 5.3
3.9 4.0 4.6 3.7 3.4 4.0 4.0 4.7 5.5 5.9 6.3 6.4 6.6 7.0 7.3 6.6 7.2 7.3 7.0 6.9 6.7 7.3 7.5 7.4 7.0 6.6 6.8 6.6 6.4 6.1 7.2 7.4 7.4 7.8 7.9 7.5 7.7 7.8 7.5 7.1 7.0 6.8 6.7 6.7 6.1 5.8 5.4 5.6 5.7
4.2 4.3 4.7 5.0 4.8 4.6 5.0 5.5 5.4 6.6 6.7 6.9 7.4 7.6 7.1 7.7 7.1 7.3 7.5 7.1 7.4 7.6 7.6 7.3 7.1 7.0 6.6 6.3 6.9 7.3 7.5 7.2 7.1 7.8 7.7 7.5 7.7 7.8 7.4 7.1 7.0 7.0 6.8 6.9 6.2 5.2 5.2 5.7 5.7
4.5 4.8 5.0 6.0 4.1 4.9 5.7 6.0 6.4 6.7 6.9 7.4 7.7 7.9 7.6 7.2 6.9 7.0 7.2 7.3 7.4 7.5 7.3 7.2 6.9 6.8 6.8 6.8 7.1 7.3 7.5 6.9 7.1 7.7 7.4 7.6 7.7 7.6 7.2 7.1 7.0 6.9 6.9 6.5 6.3 5.4 5.0 5.3 5.4
4.6 5.2 5.7 5.8 6.2 5.8 5.5 6.0 6.9 7.4 7.6 7.3 7.4 7.8 7.3 7.0 7.0 6.8 6.8 6.8 7.1 7.3 7.2 7.3 6.9 6.9 6.6 6.6 6.9 7.1 6.9 7.0 7.2 7.5 7.2 7.6 7.5 7.4 7.6 7.2 6.9 6.8 6.6 6.1 5.8 5.2 5.3 5.3 5.3
5.0 5.4 5.9 6.0 5.5 6.0 6.2 5.7 7.1 7.2 7.4 7.7 7.6 7.8 7.4 7.5 7.4 7.2 7.0 6.9 7.2 7.1 7.0 6.7 6.7 6.3 6.9 6.7 6.9 6.8 7.0 6.9 7.2 7.2 7.2 7.8 7.6 7.3 7.3 6.9 6.7 6.4 5.9 5.7 5.1 5.2 5.3 5.2 5.7
Wind_Speed
3 4 3 4 4 5 2 1 3 2 2 0 3 3 6 2 2 3 2 10 9 13 16 19 19 18 17 16 14 15 14 12 12 10 10 8 6 7 6 6 6 9 10 9 8 8 8 9 9
3 2 4 2 4 3 4 4 2 2 3 4 5 3 5 2 2 1 3 6 12 15 18 19 22 20 18 16 15 14 13 12 13 13 12 12 10 6 5 4 4 9 8 8 7 7 8 8 9
3 4 3 4 3 3 3 3 4 3 3 2 3 4 2 1 3 4 3 8 6 7 10 12 17 16 14 14 15 14 13 12 12 13 13 14 12 12 10 8 5 8 8 6 6 6 6 6 7
3 4 4 4 1 2 2 3 4 5 3 6 3 5 1 3 3 6 8 10 9 7 10 13 17 16 15 15 14 13 13 14 13 10 13 12 12 12 10 9 9 9 10 7 5 4 4 6 6
4 3 4 3 3 3 2 4 4 2 3 5 3 2 1 4 3 7 9 10 10 7 9 14 19 19 18 17 16 15 15 16 14 13 13 12 11 11 10 9 8 7 11 10 7 3 2 5 6
4 3 4 1 2 2 3 3 2 2 2 4 4 1 3 1 3 7 8 8 7 9 8 13 18 18 18 18 17 16 15 14 15 14 14 13 12 11 12 11 9 7 8 9 9 8 5 4 6
5 4 4 2 2 2 2 6 0 2 3 1 3 2 3 3 8 5 7 6 6 6 8 10 15 18 19 19 18 17 16 15 15 15 13 12 11 12 12 13 12 11 9 11 10 8 6 5 6
4 4 3 2 1 3 4 5 1 2 3 4 4 3 4 4 6 6 5 5 6 7 9 9 11 14 14 15 18 17 16 16 16 16 14 13 11 10 11 13 13 13 12 11 11 10 8 6 5
3 4 2 2 3 2 4 5 4 5 3 5 3 2 4 2 5 4 1 3 4 5 6 5 7 8 10 10 12 16 16 16 16 16 15 12 9 11 11 11 13 14 14 13 12 12 11 9 6
4 3 6 3 2 2 2 1 3 4 7 4 2 2 4 3 3 5 4 5 3 4 4 3 5 8 8 11 11 11 11 11 11 10 10 10 11 12 11 12 15 17 16 16 15 13 11 10 5
1 3 3 2 1 2 2 2 1 2 5 7 5 4 6 3 5 5 2 2 3 3 3 8 6 5 6 7 5 7 8 7 9 10 11 11 9 9 8 7 8 10 14 9 12 10 9 7 4
3 4 3 4 1 3 3 2 3 5 9 7 8 5 3 6 7 3 6 5 4 5 6 6 6 6 5 3 3 5 7 8 5 9 12 8 3 3 3 3 6 6 8 5 7 6 7 7 3
2 3 5 6 8 6 3 7 4 10 11 9 9 8 8 8 2 4 5 5 3 6 5 8 9 4 2 5 3 3 5 5 7 8 12 10 5 5 4 5 5 6 8 6 4 3 3 4 2
3 4 8 7 8 5 5 3 4 8 5 8 7 10 8 3 5 5 4 3 5 5 6 4 7 6 6 3 4 4 3 4 4 5 7 11 10 6 5 5 5 4 7 7 5 5 5 4 3
4 6 7 3 4 3 4 3 6 7 7 10 11 10 5 6 7 5 6 4 5 6 5 6 6 6 6 5 4 2 3 4 5 5 10 10 9 7 7 5 5 6 10 10 5 4 3 3 3
4 4 5 4 6 3 3 6 7 8 8 11 11 10 5 8 8 8 8 6 7 6 9 8 7 7 7 6 4 4 4 3 5 6 8 10 12 11 7 4 7 8 7 5 5 4 4 3 3
5 2 2 7 5 2 3 5 7 11 8 10 10 8 6 8 10 9 8 7 7 7 7 8 9 8 7 6 5 5 5 4 4 4 4 8 11 13 8 7 8 7 5 6 7 4 3 3 3
5 5 4 5 5 7 10 10 5 8 8 9 8 8 7 9 8 8 9 9 8 9 8 9 9 13 10 5 4 4 4 4 4 5 5 8 9 9 8 8 6 5 6 4 5 5 4 3 4
4 4 6 5 8 4 5 11 8 8 8 7 8 8 9 9 6 7 8 9 10 12 12 10 10 9 8 7 5 3 6 7 5 5 9 9 7 7 9 7 6 5 10 9 8 3 5 1 5
3 6 6 7 4 5 7 17 11 5 6 7 6 9 9 7 10 11 10 11 10 10 12 13 11 8 7 7 6 2 5 4 6 7 7 10 10 7 7 8 9 11 5 7 7 6 3 3 6
4 4 5 7 5 5 7 7 2 6 10 13 11 8 10 8 8 8 9 8 8 10 9 12 14 14 8 7 8 7 4 3 3 8 9 5 7 8 10 10 9 9 8 7 8 8 8 4 6
3 5 6 9 8 4 4 8 2 3 8 9 7 7 7 7 6 5 7 8 7 7 7 8 10 13 13 10 7 7 6 9 7 6 8 10 9 8 9 9 9 9 7 8 7 6 6 7 10
3 5 7 6 5 3 2 2 4 3 3 4 5 7 7 7 7 7 7 6 8 8 8 6 8 13 13 12 11 7 9 8 8 7 9 11 7 8 8 8 8 7 6 5 8 8 6 4 7
7 4 6 3 0 3 4 1 5 2 2 2 4 7 7 7 8 7 6 7 9 9 9 6 8 9 13 9 9 10 9 11 10 9 9 7 5 4 7 5 5 5 5 8 7 8 9 6 5
7 9 5 5 2 7 3 6 6 3 6 5 3 6 7 7 6 6 7 10 12 12 12 10 8 8 9 9 8 12 13 11 13 12 10 9 5 4 6 7 8 6 5 5 5 5 9 9 8
2 4 3 6 3 11 8 6 4 4 1 2 5 6 5 7 6 5 6 7 7 11 12 11 11 10 11 12 13 12 13 7 9 10 9 8 6 6 6 7 7 8 9 10 7 1 3 5 6
5 3 2 5 11 6 4 5 1 3 4 5 6 4 6 7 7 7 8 7 9 8 9 9 9 8 9 10 7 9 11 11 10 14 9 7 6 3 8 9 8 8 9 10 13 6 3 6 6
5 3 3 2 4 5 5 6 9 5 8 8 7 7 7 7 7 6 6 7 6 7 6 7 8 7 8 9 10 10 12 12 13 13 10 7 4 5 5 7 6 7 11 12 13 6 5 8 6
4 3 2 2 2 3 7 6 3 8 9 7 8 8 8 7 7 5 6 6 5 6 6 7 8 11 10 9 10 12 13 13 12 10 12 6 3 2 1 2 5 8 10 10 10 11 9 11 10
4 4 4 4 7 3 4 16 13 11 7 7 8 10 8 7 6 6 6 6 5 6 6 7 8 9 11 11 11 12 12 12 12 11 11 11 5 3 4 1 7 11 10 11 12 12 10 13 13
Wind_Direction
342 11 86 43 57 64 333 311 271 304 338 34 272 124 134 75 165 211 229 181 156 158 172 176 174 175 179 173 168 165 164 163 155 155 152 141 139 124 118 108 101 114 108 97 92 88 90 82 60
349 99 46 76 84 75 275 259 155 222 266 88 86 76 39 359 332 14 106 213 166 164 171 174 175 178 179 174 168 171 171 172 166 172 168 161 152 138 130 118 115 120 111 102 95 88 88 79 61
23 44 73 90 117 153 188 233 251 288 326 316 99 60 91 269 302 181 268 145 148 157 165 173 174 175 178 178 176 179 183 181 182 186 183 174 164 159 156 155 139 127 123 111 97 86 89 84 71
53 13 33 83 164 269 220 266 264 334 341 26 99 80 24 217 200 188 147 137 144 163 169 176 176 177 182 186 190 190 194 189 189 195 180 182 178 171 164 166 162 162 150 138 128 110 93 82 72
39 56 53 59 293 282 314 311 341 19 356 357 2 166 225 329 331 120 136 156 166 172 173 178 182 186 189 192 196 198 202 202 190 193 196 191 191 185 176 176 178 181 161 151 150 141 90 77 72
39 93 63 149 276 274 312 306 306 352 353 334 54 50 249 268 176 167 160 170 176 176 182 186 191 191 192 197 200 204 205 217 193 198 206 190 201 204 186 183 187 188 179 168 171 175 176 125 104
114 89 187 202 241 293 277 322 22 276 333 16 136 135 280 244 231 204 176 174 174 176 185 192 196 197 197 199 202 201 204 207 201 206 202 204 206 210 201 195 189 194 198 186 185 191 201 174 142
104 90 133 266 238 237 320 340 312 4 297 313 151 207 249 239 209 192 128 163 188 191 195 197 196 197 199 201 204 203 203 207 207 208 204 206 206 221 218 207 203 202 201 192 193 201 212 216 174
117 64 186 213 165 247 351 16 330 299 341 341 310 193 278 301 87 101 133 186 196 216 211 203 200 202 198 201 207 209 211 215 213 209 201 204 204 223 222 206 213 213 211 209 206 207 223 224 218
84 115 214 213 218 245 298 323 303 359 348 305 324 333 348 27 77 153 201 228 235 267 275 261 229 209 196 205 203 200 202 208 206 199 197 196 207 215 215 214 213 218 217 214 213 215 221 232 227
142 191 214 262 301 278 282 265 246 316 290 233 253 257 328 323 323 314 32 59 45 338 214 209 222 229 228 224 196 201 203 197 199 197 199 205 213 216 218 216 225 227 223 223 222 221 220 232 196
336 258 242 287 338 345 261 282 271 206 240 246 251 237 266 259 255 262 100 87 78 43 11 348 227 192 217 260 262 207 213 210 206 202 203 205 212 210 213 213 212 206 216 206 217 215 209 221 193
195 298 322 295 288 250 268 246 248 271 263 276 280 282 244 247 195 113 115 79 92 65 32 33 42 15 265 229 267 262 241 214 215 200 207 203 204 212 204 223 214 212 203 193 204 211 197 218 221
307 283 290 291 287 262 232 299 142 278 336 305 308 289 302 256 178 144 119 103 66 68 49 39 55 38 42 44 284 253 258 271 244 218 215 206 217 215 202 200 219 213 201 206 206 216 196 198 172
318 328 327 293 327 310 159 350 248 289 344 306 307 291 3 43 80 89 74 60 27 23 22 34 48 30 31 10 1 303 232 209 223 231 223 223 220 231 206 194 205 212 204 200 185 193 158 184 189
12 42 358 295 348 29 99 273 293 337 8 318 318 315 47 47 51 44 48 50 22 16 17 12 20 17 17 15 357 337 323 229 234 235 225 224 224 215 215 201 223 211 193 194 174 186 190 208 194
9 288 285 315 344 350 53 266 283 316 327 302 302 317 90 71 47 34 31 30 25 21 11 6 0 9 358 359 352 338 320 290 252 245 255 255 240 221 205 206 215 196 196 193 179 185 158 159 182
296 307 283 264 296 329 305 279 289 308 323 298 329 358 88 65 40 27 22 19 17 20 19 15 10 3 355 345 335 334 326 311 297 279 244 240 236 232 195 217 226 199 183 194 180 178 151 149 151
309 278 277 261 272 300 253 284 273 273 275 332 21 68 69 53 18 27 22 13 16 19 15 10 6 353 352 348 342 359 340 316 296 287 279 265 247 215 185 200 179 166 213 185 182 154 160 114 133
301 287 287 283 332 319 298 293 278 281 40 28 64 61 54 38 24 11 12 15 14 5 3 2 2 355 338 350 335 306 328 318 302 295 275 264 253 215 195 192 189 188 165 165 169 145 135 130 176
339 3 324 282 309 243 316 307 107 64 54 62 42 46 38 33 18 7 8 4 2 7 357 359 351 346 338 343 332 334 314 286 310 318 310 289 252 213 207 191 181 172 169 173 171 175 162 160 187
302 335 326 317 341 303 62 289 358 62 68 48 23 30 17 8 353 350 351 350 351 346 342 345 350 340 338 341 332 327 315 317 320 299 290 290 249 223 208 183 179 175 170 170 171 176 171 157 195
302 306 293 276 260 320 252 273 257 172 53 22 358 8 0 342 343 339 332 324 321 327 330 349 350 342 335 334 347 316 314 302 310 297 283 284 254 221 209 185 177 165 160 157 148 147 155 152 187
296 324 294 321 184 297 127 20 277 325 274 170 31 13 346 338 336 337 325 328 336 330 327 341 352 352 320 331 331 304 313 300 317 306 297 294 257 213 205 188 165 162 167 164 170 150 134 178 188
20 25 334 336 4 266 8 346 254 61 22 59 27 320 323 314 332 335 333 337 334 330 326 326 328 330 312 311 338 320 305 308 304 298 296 299 249 218 196 178 175 192 151 140 120 144 154 197 157
341 116 180 280 278 296 312 250 270 124 77 282 270 269 297 323 309 313 314 317 331 332 330 325 312 320 326 347 343 314 309 306 297 294 286 287 259 233 205 176 157 159 145 127 115 256 162 166 139
328 51 317 263 268 287 246 299 192 218 320 322 300 302 346 301 302 326 332 330 334 334 329 320 320 323 336 326 317 309 305 320 300 313 290 285 274 246 200 175 167 176 160 159 145 136 187 145 127
102 252 336 304 309 293 292 292 274 232 266 277 304 314 306 299 300 313 320 327 330 330 318 329 331 330 330 332 333 327 317 312 319 321 291 282 291 238 185 169 154 164 145 146 132 123 150 130 127
355 326 31 190 259 271 303 275 240 259 263 269 278 286 276 269 270 285 303 304 317 317 337 330 329 339 335 338 328 328 318 315 321 315 309 280 292 357 68 182 175 149 143 140 142 137 146 132 113
181 186 124 132 286 239 250 274 270 279 250 239 268 283 276 265 276 282 300 312 333 338 330 322 331 333 335 329 326 319 312 316 312 315 305 303 285 340 9 188 175 160 151 142 132 134 140 126 116